Hot Springs, AR

3:04 PM CDT on July 24, 2016 (GMT -0500)
Hot Springs Memorial

Weather History for KHOT - June, 2014

Change the Weather History Date:

Wednesday, June 18, 2014

  Actual Average Record
Temperature  
Mean Temperature 82 °F -  
Max Temperature 89 °F 89 °F 102 °F (1985)
Min Temperature 75 °F 66 °F 54 °F (1978)
Cooling Degree Days 16    
Growing Degree Days 32 (Base 50)    
Moisture  
Dew Point 71 °F    
Average Humidity 70    
Maximum Humidity 85    
Minimum Humidity 53    
Precipitation  
Precipitation 0.00 in - - ()
Sea Level Pressure  
Sea Level Pressure 30.03 in    
Wind  
Wind Speed 5 mph (SSW)    
Max Wind Speed 14 mph    
Max Gust Speed 20 mph    
Visibility 10 miles    
Events      
Averages and records for this station are not official NWS values.
T = Trace of Precipitation, MM = Missing Value Source: NWS Daily Summary

Daily Weather History Graph

Daily Weather History Graph

Search for Another Location

Airport or City:

Trip Planner

Search our weather history database for the weather conditions in past years. The results will help you decide how hot, cold, wet, or windy it might be!

Date:

Astronomy

Jun. 18, 2014 Rise Set
Actual Time 5:59 AM CDT 8:27 PM CDT
Civil Twilight 5:30 AM CDT 8:56 PM CDT
Nautical Twilight 4:53 AM CDT 9:33 PM CDT
Astronomical Twilight 4:13 AM CDT 10:13 PM CDT
Moon 12:09 AM CDT (6/18) 12:09 PM CDT (6/18)
Length of Visible Light 15h 26m
Length of Day
14h 27m
Waning Gibbous, 62% of the Moon is Illuminated
Jun 18
Waning Gibbous
Jun 19
Last Quarter
Jun 27
New
Jul 5
First Quarter
Jul 12
Full

Hourly Weather History & Observations

Time (CDT) Temp. Heat Index Dew Point Humidity Pressure Visibility Wind Dir Wind Speed Gust Speed Precip Events Conditions
12:53 AM 79.0 °F - 72.0 °F 79% 30.01 in 10.0 mi Calm Calm - N/A   Clear
1:53 AM 78.1 °F - 72.0 °F 81% 30.01 in 10.0 mi Calm Calm - N/A   Clear
2:53 AM 77.0 °F - 71.1 °F 82% 30.01 in 10.0 mi SE 3.5 mph - N/A   Clear
3:53 AM 77.0 °F - 71.1 °F 82% 30.01 in 10.0 mi SSW 5.8 mph - N/A   Clear
4:53 AM 77.0 °F - 71.1 °F 82% 30.01 in 10.0 mi SSW 6.9 mph - N/A   Clear
5:53 AM 75.9 °F - 71.1 °F 85% 30.02 in 10.0 mi SSW 6.9 mph - N/A   Clear
6:53 AM 75.9 °F - 71.1 °F 85% 30.03 in 10.0 mi SSW 6.9 mph - N/A   Clear
7:53 AM 77.0 °F - 71.1 °F 82% 30.04 in 8.0 mi SW 6.9 mph - N/A   Scattered Clouds
8:41 AM 77.0 °F - 71.6 °F 83% 30.07 in 9.0 mi SW 9.2 mph - N/A   Mostly Cloudy
8:53 AM 78.1 °F - 71.1 °F 79% 30.05 in 9.0 mi SW 6.9 mph - N/A   Overcast
9:53 AM 80.1 °F 83.6 °F 71.1 °F 74% 30.05 in 10.0 mi SW 13.8 mph 19.6 mph N/A   Mostly Cloudy
10:20 AM 80.6 °F 83.9 °F 69.8 °F 70% 30.07 in 10.0 mi SW 11.5 mph 19.6 mph N/A   Scattered Clouds
10:29 AM 80.6 °F 83.9 °F 69.8 °F 70% 30.07 in 10.0 mi SW 9.2 mph 18.4 mph N/A   Mostly Cloudy
10:53 AM 82.0 °F 85.9 °F 70.0 °F 67% 30.06 in 10.0 mi SW 10.4 mph - N/A   Mostly Cloudy
11:08 AM 82.4 °F 86.3 °F 69.8 °F 66% 30.08 in 10.0 mi WSW 11.5 mph 17.3 mph N/A   Mostly Cloudy
11:53 AM 84.9 °F 89.4 °F 70.0 °F 61% 30.06 in 10.0 mi SW 10.4 mph - N/A   Scattered Clouds
12:53 PM 84.9 °F 89.4 °F 70.0 °F 61% 30.06 in 10.0 mi South 8.1 mph - N/A   Mostly Cloudy
1:53 PM 87.1 °F 92.0 °F 70.0 °F 57% 30.04 in 10.0 mi SSW 9.2 mph - N/A   Clear
2:53 PM 88.0 °F 92.9 °F 70.0 °F 55% 30.02 in 10.0 mi SW 8.1 mph - N/A   Scattered Clouds
3:53 PM 88.0 °F 92.9 °F 70.0 °F 55% 30.00 in 10.0 mi South 6.9 mph - N/A   Partly Cloudy
4:53 PM 88.0 °F 92.9 °F 70.0 °F 55% 29.99 in 10.0 mi Variable 5.8 mph - N/A   Clear
5:53 PM 88.0 °F 92.1 °F 69.1 °F 53% 29.99 in 10.0 mi South 5.8 mph - N/A   Clear
6:53 PM 87.1 °F 91.3 °F 69.1 °F 55% 29.98 in 10.0 mi South 4.6 mph - N/A   Clear
7:53 PM 84.9 °F 89.4 °F 70.0 °F 61% 29.99 in 10.0 mi SSE 3.5 mph - N/A   Clear
8:53 PM 82.9 °F 87.5 °F 71.1 °F 67% 29.99 in 10.0 mi Calm Calm - N/A   Clear
9:53 PM 81.0 °F 84.9 °F 71.1 °F 72% 30.00 in 10.0 mi SSE 3.5 mph - N/A   Clear
10:53 PM 80.1 °F 83.6 °F 71.1 °F 74% 30.02 in 10.0 mi South 3.5 mph - N/A   Clear
11:53 PM 80.1 °F 83.2 °F 70.0 °F 71% 30.01 in 10.0 mi Variable 5.8 mph - N/A   Clear